Simultaneous Nadir Overpasses (SNOs) Predictions

Prediction of SNOs over PacNW region [( 10.00, 139.50) to ( 22.70, 165.60)] between AQUA and NPP Satellites:

Table of predicted SNOs over PacNW region for the next 30.0 days since TLE Epoch: 11/25/2012
Index Date (AQUA) Time (AQUA) AQUA Lat,Lon Date (NPP) Time (NPP) NPP Lat,Lon Distance(km) Time Diff (sec)
1 11/26/2012 15:59:01 22.62, 147.48 11/26/2012 15:59:46 23.29, 144.59 305.53 45
2 12/04/2012 15:09:49 21.27, 159.56 12/04/2012 15:09:26 21.80, 156.91 280.84 23
3 12/12/2012 15:58:31 22.63, 147.62 12/12/2012 15:59:42 23.30, 144.61 316.81 71
4 12/20/2012 15:08:30 22.61, 160.12 12/20/2012 15:08:53 23.23, 157.30 296.94 23




NCC Satellite Simultaneous Nadir Overpasses (SNOs) Prediction Service
